User: anonymous   Login
Location: İstanbul
(41.0082°N, 28.9784°E)
Time: 21:11:30
(UTC+03:00)
Language:

CUTE-I - Orbit

View from above orbital plane
View from above orbital plane
View from above satellite
View from above satellite

Ground track
Ground track

The orbit data is extracted from the following two-line orbital elements,

1 27844U 03031E   24112.84867528  .00001405  00000-0  64067-3 0  9996
2 27844  98.6791 120.6627 0008756 313.3835  46.6613 14.23178952 79805
Epoch (UTC): 21 April 2024 20:22:05
Eccentricity: 0.0008756
inclination: 98.6791°
perigee height: 808 km
apogee height: 821 km
right ascension of ascending node: 120.6627°
argument of perigee: 313.3835°
revolutions per day: 14.23178952
mean anomaly at epoch: 46.6613°
orbit number at epoch: 7980

The dashed part of the orbit path shows where the satellite is in the earth's shadow,  

DLR